Location: 81360 Arifat, France
(43.7204°N, 2.3408°E)
Time: 03:58:46
(UTC+01:00)

ACS3 Solar Sail - Pass Details

Date: 13 October 2025
Orbit: 909 x 993 km, 97.3° (Epoch: 13 November)

Event Time Altitude Azimuth Distance (km) Brightness Sun altitude
Rises 04:27:15 0° 25° (NNE) 3,549 5.4 -38.4°
Reaches altitude 10° 04:30:16 10° 40° (NE) 2,603 4.7 -37.9°
Maximum altitude 04:34:40 22° 90° (E) 1,892 3.7 -37.3°
Enters shadow 04:38:11 13° 133° (SE) 2,383 4.0 -36.7°
